Hourly Data Report for July 29, 2021

TORONTO CITY
ONTARIO
Current Station Operator: ECCC - MSC

43°40'00.000" N
79°24'00.000" W
112.50 m
6158355
71508
XTO

Download Data

Hourly Data (July 2021)
Hourly Data Report for July 29, 2021
TIME
LST
Temp Definition
°C
Dew Point Definition
°C
Rel Hum Definition
%
Precip. Amount Definition
mm

Wind Dir Definition
10's deg

Wind Spd Definition
km/h
Visibility Definition
km
Stn Press Definition
kPa
Hmdx Definition


Wind Chill Definition


Weather Definition


00:00 20.2 15.3 74 0.0       100.12     LegendNANA
01:00 19.7 15.7 78 0.0       100.06     LegendNANA
02:00 19.3 16.3 83 0.0       100.01     LegendNANA
03:00 19.2 16.6 85 0.0       100.01     LegendNANA
04:00 19.8 16.6 82 0.0       99.92     LegendNANA
05:00 20.3 17.3 83 0.0       99.80 26   LegendNANA
06:00 20.2 17.7 86 0.0       99.74 26   LegendNANA
07:00 20.2 18.6 91 0.4       99.71 27   LegendNANA
08:00 19.8 18.9 95 5.7       99.65     LegendNANA
09:00 19.5 18.5 94 4.0       99.53     LegendNANA
10:00 19.8 18.9 95 1.3       99.46     LegendNANA
11:00 21.4 19.9 91 0.7       99.41 29   LegendNANA
12:00 22.3 19.8 86 0.0       99.34 30   LegendNANA
13:00 24.2 20.3 79 0.0       99.31 32   LegendNANA
14:00 24.7 18.9 70 0.0       99.29 31   LegendNANA
15:00 24.9 19.9 74 0.0       99.31 32   LegendNANA
16:00 24.6 19.2 72 0.0       99.34 32   LegendNANA
17:00 24.6 19.1 72 0.0       99.37 31   LegendNANA
18:00 24.7 17.6 65 0.0       99.42 30   LegendNANA
19:00 23.9 17.2 66 0.0       99.46 29   LegendNANA
20:00 22.8 17.2 70 0.0       99.52 28   LegendNANA
21:00 21.3 17.5 79 0.0       99.63 27   LegendNANA
22:00 21.1 16.7 76 0.0       99.65 26   LegendNANA
23:00 20.2 17.0 82 0.0       99.65 25   LegendNANA

Notes on Data Quality.

Legend

  • E = Estimated
  • M = Missing
  • NA = Not Available*
  • [empty] = Indicates an unobserved value
Date modified: